Overview Statistics Trail Chart Weather Telemetry Raw packets
 

This is the latest recevied weather packets stored in our database for station/object YREN. If no packets are shown the sender has not sent any weather packets the latest 10 day(s).

<< 34 35 36 37 38 39 >>
Time Temp. Humidity Pressure Rain* Wind** Luminosity Snow
1787800804 17.78° C 53% 1028.3 hPa 0 mm - - -
1787799903 17.78° C 53% 1028.3 hPa 0 mm - - -
1787799004 17.78° C 58% 1028.8 hPa 0 mm - - -
1787798104 17.78° C 58% 1028.8 hPa 0 mm - - -
1787797204 16.11° C 59% 1029.5 hPa 0 mm - - -
1787796304 16.11° C 59% 1029.5 hPa 0 mm - - -
1787795404 16.11° C 59% 1029.5 hPa 0 mm - - -
1787794504 16.11° C 59% 1029.5 hPa 0 mm - - -
1787793604 14.44° C 66% 1030.2 hPa 0 mm - - -
1787792703 14.44° C 66% 1030.2 hPa 0 mm - - -
1787791804 13.33° C 70% 1030.1 hPa 0 mm - - -
1787790904 13.33° C 70% 1030.1 hPa 0 mm - - -
1787790003 12.78° C 80% 1030.1 hPa 0 mm - - -
1787789104 12.78° C 80% 1030.1 hPa 0 mm - - -
1787788203 11.11° C 85% 1030.1 hPa 0 mm - - -
1787787304 11.11° C 85% 1030.1 hPa 0 mm - - -
1787786404 8.33° C 98% 1030 hPa 0 mm - - -
1787785503 8.33° C 98% 1030 hPa 0 mm - - -
1787784603 8.33° C 98% 1030 hPa 0 mm - - -
1787783703 8.33° C 98% 1030 hPa 0 mm - - -
1787782804 3.33° C 97% 1029.2 hPa 0 mm - - -
1787781904 3.33° C 97% 1029.2 hPa 0 mm - - -
1787781004 1.67° C 97% 1029 hPa 0 mm - - -
1787780104 1.67° C 97% 1029 hPa 0 mm - - -
1787779204 1.11° C 96% 1028.9 hPa 0 mm - - -

* Rain latest hour (hover to see other rain measurements)
** Current wind speed in m/s (hover to see current wind gust speed)